Truth Or Consequences, NM

6:21 AM MDT on October 17, 2017 (GMT -0600)
Truth Or Consequences Municipal

Weather History for KTCS - May, 2013

Change the Weather History Date:

Thursday, May 16, 2013

  Actual Average Record
Temperature  
Mean Temperature 77 °F -  
Max Temperature 91 °F 84 °F 91 °F (2013)
Min Temperature 63 °F 56 °F 46 °F (1998)
Cooling Degree Days 12    
Month to date cooling degree days 47  
Year to date cooling degree days 93  
Growing Degree Days 28 (Base 50)    
Moisture  
Dew Point 17 °F    
Average Humidity 13    
Maximum Humidity 22    
Minimum Humidity 3    
Precipitation  
Precipitation 0.00 in - 0.54 in (2008)
Month to date precipitation 0.14  
Year to date precipitation 0.28  
Sea Level Pressure  
Sea Level Pressure 29.71 in    
Wind  
Wind Speed 9 mph (West)    
Max Wind Speed 22 mph    
Max Gust Speed 31 mph    
Visibility 10 miles    
Events      
T = Trace of Precipitation, MM = Missing Value Source: NWS Daily Summary

Daily Weather History Graph

Daily Weather History Graph

Search for Another Location

Airport or City:

Trip Planner

Search our weather history database for the weather conditions in past years. The results will help you decide how hot, cold, wet, or windy it might be!

Date:

Astronomy

May. 16, 2013 Rise Set
Actual Time 6:08 AM MDT 8:02 PM MDT
Civil Twilight 5:40 AM MDT 8:30 PM MDT
Nautical Twilight 5:07 AM MDT 9:03 PM MDT
Astronomical Twilight 4:32 AM MDT 9:39 PM MDT
Moon 11:38 AM MDT (5/16) 12:30 AM MDT (5/16)
Length of Visible Light 14h 49m
Length of Day
13h 54m
Waxing Crescent, 36% of the Moon is Illuminated
May 16
Waxing Crescent
May 17
First Quarter
May 24
Full
May 31
Last Quarter
Jun 8
New

Hourly Weather History & Observations

Time (MDT) Temp. Dew Point Humidity Pressure Visibility Wind Dir Wind Speed Gust Speed Precip Events Conditions
12:53 AM 73.0 °F 23.0 °F 15% 29.70 in 10.0 mi WNW 16.1 mph - N/A   Clear
1:53 AM 71.1 °F 23.0 °F 16% 29.70 in 10.0 mi WNW 18.4 mph - N/A   Clear
2:53 AM 71.1 °F 23.0 °F 16% 29.72 in 10.0 mi NW 8.1 mph 16.1 mph N/A   Clear
3:53 AM 66.0 °F 23.0 °F 20% 29.75 in 10.0 mi NW 4.6 mph - N/A   Clear
4:53 AM 64.0 °F 24.1 °F 22% 29.78 in 10.0 mi North 3.5 mph - N/A   Clear
5:53 AM 64.9 °F 25.0 °F 22% 29.77 in 10.0 mi NNW 6.9 mph - N/A   Clear
6:53 AM 66.0 °F 26.1 °F 22% 29.79 in 10.0 mi NW 6.9 mph - N/A   Clear
7:53 AM 72.0 °F 26.1 °F 18% 29.80 in 10.0 mi NNW 8.1 mph - N/A   Clear
8:53 AM 75.0 °F 25.0 °F 16% 29.81 in 10.0 mi Variable 5.8 mph - N/A   Clear
9:53 AM 78.1 °F 21.9 °F 12% 29.80 in 10.0 mi West 6.9 mph - N/A   Clear
10:53 AM 82.0 °F 16.0 °F 8% 29.78 in 10.0 mi WNW 11.5 mph 19.6 mph N/A   Clear
11:53 AM 82.9 °F 19.9 °F 10% 29.75 in 10.0 mi Variable 3.5 mph - N/A   Clear
12:53 PM 84.0 °F 15.1 °F 8% 29.73 in 10.0 mi SSE 10.4 mph 16.1 mph N/A   Clear
1:53 PM 86.0 °F 16.0 °F 7% 29.70 in 10.0 mi South 13.8 mph 19.6 mph N/A   Clear
2:53 PM 87.1 °F 15.1 °F 7% 29.67 in 10.0 mi Variable 4.6 mph 17.3 mph N/A   Clear
3:53 PM 89.1 °F 9.0 °F 5% 29.64 in 10.0 mi SSW 10.4 mph 18.4 mph N/A   Clear
4:53 PM 90.0 °F 8.1 °F 5% 29.62 in 10.0 mi South 11.5 mph - N/A   Clear
5:53 PM 90.0 °F 1.0 °F 4% 29.60 in 10.0 mi WSW 5.8 mph - N/A   Clear
6:53 PM 89.1 °F 5.0 °F 4% 29.60 in 10.0 mi WSW 15.0 mph 20.7 mph N/A   Clear
7:53 PM 84.9 °F 10.9 °F 6% 29.60 in 10.0 mi WSW 17.3 mph 24.2 mph N/A   Clear
8:53 PM 81.0 °F 14.0 °F 8% 29.64 in 10.0 mi WSW 15.0 mph - N/A   Clear
9:53 PM 78.1 °F 14.0 °F 9% 29.66 in 10.0 mi WSW 10.4 mph - N/A   Clear
10:53 PM 75.9 °F 14.0 °F 10% 29.68 in 10.0 mi SSW 4.6 mph - N/A   Clear
11:53 PM 72.0 °F 15.1 °F 11% 29.68 in 10.0 mi West 9.2 mph - N/A   Clear